EHI
0 0 0 0 0 1 0 0 1 2 1 1 1 0 0 0 0 0 0 0 0 0 0 0 0 0 0 0 1 1 1 0 0 0 0 0 0 0 0 0 0 0 0
0 0 0 0 0 1 1 0 1 2 1 1 1 1 0 0 0 0 0 0 0 0 0 0 0 0 0 1 2 3 1 0 0 0 0 0 0 0 0 0 0 0 0
0 0 0 1 1 1 1 1 2 3 2 1 1 2 2 1 1 1 1 0 0 0 0 0 0 0 1 2 3 2 1 0 0 0 0 0 0 0 0 0 0 0 0
0 0 1 2 2 1 1 0 1 3 2 1 1 2 3 3 3 2 1 1 1 1 1 1 1 0 1 2 2 1 0 0 0 0 0 0 0 0 0 0 0 0 0
0 0 1 2 3 2 1 0 1 2 2 1 0 1 2 2 3 3 3 2 3 4 4 4 3 1 1 1 1 0 0 0 0 0 0 0 0 0 0 0 0 0 0
0 0 1 1 2 2 1 0 0 1 2 2 1 0 0 1 2 2 2 2 3 4 5 5 4 4 3 3 1 1 1 0 0 0 0 0 0 0 0 0 0 0 0
0 0 1 1 1 1 1 0 0 1 3 4 3 1 1 0 1 1 1 1 1 1 2 3 4 4 5 4 2 2 1 0 0 0 0 0 0 0 0 0 0 0 0
0 0 0 0 0 0 0 0 0 0 1 2 3 2 1 0 0 1 1 0 0 0 0 1 1 3 3 3 1 1 1 0 0 0 0 0 0 0 0 0 0 0 0
0 0 0 0 0 0 0 0 0 0 0 0 1 1 1 0 0 1 1 0 0 0 0 1 1 1 1 1 0 0 0 0 0 0 0 0 0 0 0 0 0 0 0
0 0 0 0 0 0 0 0 0 0 0 0 0 0 0 0 0 0 0 0 0 0 0 1 2 1 0 0 0 0 0 0 0 0 0 0 0 0 0 0 0 0 0
0 0 0 0 0 0 0 0 0 0 0 0 0 0 0 0 0 0 0 0 0 0 0 1 1 1 0 0 0 0 0 0 0 0 0 0 0 0 0 0 0 0 0
0 0 0 0 0 0 0 0 0 0 0 0 0 0 0 0 0 0 0 0 0 0 0 0 0 0 0 0 0 0 0 0 0 0 0 0 0 0 0 0 0 0 0
0 0 0 0 0 0 0 0 0 0 0 0 0 0 0 0 0 0 0 0 0 0 0 0 0 0 0 0 0 0 0 0 0 0 0 0 0 0 0 0 0 0 0
0 0 0 0 0 0 0 0 0 0 0 0 0 0 0 0 0 0 0 0 0 0 0 0 0 0 0 0 0 0 0 0 0 0 0 0 0 0 0 0 0 0 0
0 0 0 0 0 0 0 0 0 0 0 0 0 0 0 0 0 0 0 0 0 0 0 0 0 0 0 0 0 0 0 0 0 0 0 0 0 0 0 0 0 0 0
0 0 0 0 0 0 0 0 0 0 0 0 0 0 0 0 0 0 0 0 0 0 0 0 0 0 0 0 0 0 0 0 0 0 0 0 0 0 0 0 0 0 0
0 0 0 0 0 0 0 0 0 0 0 0 0 0 0 0 0 0 0 0 0 0 0 0 0 0 0 0 0 0 0 0 0 0 0 0 0 0 0 0 0 0 0
0 0 0 0 0 0 0 0 0 0 0 0 0 0 0 0 0 0 0 0 0 0 0 0 0 0 0 0 0 0 0 0 0 0 0 0 0 0 0 0 0 0 0
0 0 0 0 0 0 0 0 0 0 0 0 0 0 0 0 0 0 0 0 0 0 0 0 0 0 0 0 0 0 0 0 0 0 0 0 0 0 0 0 0 0 0
0 0 0 0 0 0 0 0 0 0 0 0 0 0 0 0 0 0 0 0 0 0 0 0 0 0 0 0 0 0 0 0 0 0 0 0 0 0 0 0 0 0 0
0 0 0 0 0 0 0 0 0 0 0 0 0 0 0 0 0 0 0 0 0 0 0 0 0 0 0 0 0 0 0 0 0 0 0 0 0 0 0 0 0 0 0
0 0 0 0 0 0 0 0 0 0 0 0 0 0 0 0 0 0 0 0 0 0 0 0 0 0 0 0 0 0 0 0 0 0 0 0 0 0 0 0 0 0 0
0 0 0 0 0 0 0 0 0 0 0 0 0 0 0 0 0 0 0 0 0 0 0 0 0 0 0 0 0 0 0 0 0 0 0 0 0 0 0 0 0 0 0
0 0 0 0 0 0 0 0 0 0 0 0 0 0 0 0 0 0 0 0 0 0 0 0 0 0 0 0 0 0 0 0 0 0 0 0 0 0 0 0 0 0 0
0 0 0 0 0 0 0 0 0 0 0 0 0 0 0 0 0 0 0 0 0 0 0 0 0 0 0 0 0 0 0 0 0 0 0 0 0 0 0 0 0 0 0
0 0 0 0 0 0 0 0 0 0 0 0 0 0 0 0 0 0 0 0 0 0 0 0 0 0 0 0 0 0 0 0 0 0 0 0 0 0 0 0 0 0 0
Wind_Speed
2 3 1 4 6 8 9 9 10 11 11 11 11 11 11 11 12 12 12 12 12 12 13 13 13 13 13 13 13 13 13 14 14 13 13 12 12 13 13 12 10 7 13
1 2 2 5 7 9 9 10 10 10 11 11 11 11 11 11 11 12 12 12 12 13 13 13 13 13 13 13 13 13 13 13 13 13 12 10 10 12 12 11 10 7 12
2 2 3 7 9 9 10 10 10 10 10 11 11 11 11 11 11 11 11 12 12 12 13 13 13 13 13 13 13 12 12 12 13 12 10 6 6 10 11 11 10 11 11
4 3 4 8 10 10 10 10 10 10 11 11 11 11 11 11 11 11 11 11 12 12 12 13 12 12 12 12 12 12 12 12 12 11 6 5 5 9 10 10 10 10 10
4 4 4 9 10 10 10 10 10 10 10 10 11 11 11 11 11 11 11 11 12 12 12 12 12 12 12 12 12 12 12 11 11 9 6 5 4 8 10 9 9 9 9
5 4 5 9 10 10 10 10 10 10 10 10 10 10 10 10 11 11 11 12 12 12 11 12 12 12 12 11 12 12 12 11 9 5 5 5 4 7 9 9 9 9 8
5 5 5 9 10 9 9 10 10 10 11 11 10 10 10 10 11 11 11 11 12 11 11 11 12 12 12 11 12 12 12 11 6 5 4 4 5 8 8 8 8 8 9
5 5 5 8 9 9 9 10 10 11 11 11 11 10 10 10 10 11 11 12 11 11 11 11 11 11 11 12 12 12 12 10 7 5 4 4 6 7 8 8 8 8 8
6 6 6 5 6 7 9 10 10 11 11 11 11 11 11 11 10 10 10 11 11 10 11 11 11 11 11 12 12 12 12 12 6 4 5 4 7 7 7 7 7 7 7
6 6 5 6 6 5 5 9 10 10 11 11 11 11 12 12 11 11 10 10 10 10 11 11 11 11 11 12 12 12 11 9 5 5 3 4 8 7 6 6 5 6 6
5 4 5 5 5 5 5 7 8 9 10 10 9 11 10 6 6 7 9 11 11 11 11 11 11 11 11 11 12 11 9 4 4 4 3 7 8 6 6 5 5 5 5
2 3 3 4 4 4 4 4 4 5 5 6 5 6 5 5 5 7 10 11 11 11 11 11 11 10 8 5 7 9 4 5 4 4 4 9 8 7 6 6 5 4 4
3 2 3 3 3 4 3 3 3 3 3 4 5 5 4 4 4 4 3 5 6 7 5 7 6 5 4 4 4 4 4 4 3 3 5 10 9 8 7 6 5 4 4
3 2 2 2 3 3 3 3 3 2 2 3 3 4 4 3 3 3 3 3 3 3 3 3 3 4 4 4 4 4 4 3 3 3 5 11 10 9 8 7 6 5 4
3 2 2 2 3 3 3 2 3 2 3 3 3 3 4 3 3 3 3 3 3 3 3 3 3 4 4 4 4 4 4 4 4 4 4 10 11 10 9 8 7 6 5
3 2 2 2 3 3 3 3 2 2 2 2 2 3 4 3 3 3 3 3 3 3 2 2 3 3 3 3 4 4 3 3 4 4 4 6 11 11 10 9 8 7 6
4 3 2 3 3 3 3 3 2 2 2 2 2 3 3 3 3 3 3 3 2 2 3 3 3 3 3 3 4 4 3 3 3 4 4 3 5 9 11 10 9 9 7
4 4 3 3 3 3 3 3 2 2 2 2 2 2 3 4 3 3 2 2 3 3 3 3 3 3 3 3 3 3 3 3 3 3 3 4 3 4 7 11 11 10 9
5 5 4 3 3 3 3 3 3 2 2 2 2 2 3 3 3 2 2 2 3 3 3 3 3 2 2 3 2 2 2 2 3 3 3 4 4 4 3 7 11 11 10
5 5 4 4 4 4 3 3 2 3 2 2 2 2 2 2 3 2 2 3 3 3 3 3 2 2 2 2 2 2 2 2 2 2 3 3 3 4 4 4 4 6 10
5 5 5 5 4 4 2 2 2 1 1 1 1 2 2 2 3 2 2 3 3 2 2 2 1 2 2 2 2 2 2 2 2 2 2 2 4 4 4 4 3 3 4
7 6 5 5 5 4 2 1 1 2 1 1 1 2 3 2 2 2 2 2 2 2 3 3 2 1 2 2 1 1 2 2 2 2 2 2 3 3 4 5 4 4 3
7 7 6 6 5 4 3 3 3 2 2 2 2 2 2 2 2 2 2 2 2 2 2 2 2 1 1 2 1 1 0 1 3 2 2 2 3 3 3 3 4 4 4
8 7 6 6 6 5 5 4 4 2 1 1 0 0 1 2 2 2 2 2 2 2 2 2 2 1 1 1 1 1 0 1 1 3 2 2 3 3 3 4 4 4 4
8 7 6 6 6 5 5 5 4 2 1 1 1 1 1 1 2 2 2 2 2 1 1 2 2 1 1 0 0 1 1 1 0 1 3 3 3 2 2 3 3 3 3
6 6 6 6 5 5 5 5 5 4 3 3 1 1 0 1 1 1 1 1 1 1 1 1 1 1 0 0 0 0 1 1 1 1 3 4 4 4 4 3 2 2 2
Wind_Direction
293 304 22 58 71 72 72 71 69 68 67 68 69 70 69 69 67 64 62 60 60 61 61 61 60 60 61 64 64 63 64 63 61 61 58 59 64 69 71 68 66 64 75
243 310 65 74 78 75 72 72 70 69 68 67 68 69 69 68 66 64 60 59 58 59 58 58 58 59 60 62 62 61 63 63 61 58 52 47 54 67 70 70 69 69 74
61 35 60 80 81 77 73 71 69 69 68 67 66 66 67 66 65 64 61 58 57 57 56 56 56 58 59 61 61 61 62 63 61 56 48 38 46 66 70 71 70 72 75
63 45 58 80 79 76 74 71 67 66 67 68 68 65 66 67 66 65 63 59 56 55 55 57 56 57 57 58 60 62 63 62 58 52 43 32 30 61 70 72 73 74 75
57 45 69 83 80 75 73 70 67 67 67 66 66 66 65 66 66 65 63 60 58 56 56 56 57 56 56 56 58 61 63 60 55 49 39 30 27 55 65 68 72 75 77
56 44 68 81 80 77 74 70 66 65 65 65 63 62 63 63 65 65 63 60 57 57 56 55 55 55 55 56 57 58 58 56 50 42 36 28 25 52 63 65 68 72 75
63 45 61 78 78 77 74 70 67 65 63 62 61 60 62 62 61 62 61 58 56 53 54 53 52 53 52 54 56 56 55 52 49 41 32 22 31 51 59 63 67 70 70
77 54 55 75 77 75 73 70 67 64 62 60 59 58 58 60 59 59 56 54 54 52 53 52 50 50 52 55 56 54 51 48 44 37 25 17 32 46 56 59 64 69 69
72 60 46 44 56 69 70 68 65 64 62 60 57 56 56 58 59 57 55 52 50 50 52 52 50 50 50 52 53 52 50 46 39 27 21 13 26 40 50 54 59 66 69
66 60 53 47 43 40 51 64 62 62 62 60 57 56 54 50 50 54 51 48 48 48 48 50 51 51 49 49 49 49 46 44 30 22 11 12 21 30 40 46 53 62 68
67 58 57 57 50 46 48 56 54 56 57 56 52 55 52 37 32 37 46 47 45 44 46 47 47 48 47 42 42 43 44 32 24 20 8 13 17 22 31 37 43 53 63
93 68 62 64 58 53 55 50 46 46 45 44 39 40 39 37 38 39 40 44 43 42 41 42 44 42 42 32 32 36 31 26 29 13 11 16 16 19 26 31 34 42 51
135 93 68 68 66 66 61 57 50 47 46 43 40 38 39 41 37 36 31 29 28 36 32 29 32 31 32 32 32 30 27 28 21 6 7 17 17 18 22 26 26 30 38
133 111 84 81 78 74 73 67 64 57 51 47 39 38 41 40 36 32 32 23 23 22 27 28 28 26 31 31 34 34 31 26 15 4 7 20 21 18 17 17 21 24 23
141 130 112 102 94 85 84 77 72 67 60 52 44 39 43 46 38 33 30 27 20 20 26 28 29 28 28 27 30 34 29 23 17 15 4 19 23 20 18 15 14 20 19
158 149 126 114 105 95 87 82 75 71 69 61 50 43 46 48 42 33 32 26 19 17 19 31 34 30 26 26 28 27 25 20 19 19 15 14 19 20 21 22 16 15 15
168 150 139 130 108 100 94 93 86 68 65 63 51 45 48 50 48 39 33 20 8 14 24 27 30 34 33 28 24 18 21 21 19 20 20 23 11 16 20 18 14 11 7
156 152 153 138 119 104 99 95 88 74 65 57 50 48 47 47 50 46 37 16 5 18 26 31 23 32 28 20 15 11 12 13 16 20 28 27 19 16 12 16 14 10 3
162 158 153 135 129 113 102 96 87 76 62 50 44 50 47 46 46 51 38 16 17 25 25 25 29 22 18 13 4 11 11 15 9 21 26 24 20 16 12 10 8 4 2
159 157 152 138 128 113 104 99 84 69 55 43 37 39 46 44 41 47 42 25 24 35 28 25 25 26 14 359 6 7 358 4 18 24 19 18 16 13 7 5 1 356 359
159 158 157 147 145 134 127 124 110 80 47 34 31 29 39 46 43 44 41 31 26 36 30 20 19 27 14 356 19 3 354 4 21 26 14 15 12 4 2 0 360 355 345
176 173 165 162 159 157 154 140 120 115 94 53 31 30 30 36 40 49 48 39 28 39 33 21 25 22 4 16 40 20 347 341 358 354 356 8 360 352 356 354 354 353 344
183 181 177 172 166 160 139 112 91 70 51 41 25 19 11 22 34 46 50 47 35 44 38 22 24 47 16 358 30 88 100 287 322 320 340 353 349 352 340 337 345 346 342
190 181 175 172 167 160 150 147 145 142 151 208 273 9 9 25 32 35 46 48 42 39 36 20 29 27 65 356 354 15 173 193 283 314 315 326 334 338 331 330 332 329 336
182 177 176 171 168 164 163 161 154 142 130 105 88 83 24 14 28 31 39 41 37 31 27 26 26 28 40 148 303 315 317 333 259 256 296 313 318 306 310 305 305 312 324
172 171 171 170 172 170 166 164 162 156 144 133 126 123 29 355 3 16 38 34 21 21 16 8 16 29 23 109 237 240 237 233 255 261 281 299 301 297 301 290 292 299 307